Regional Weather Roundup
Issued by NWS

Home | Current Version | Previous Version | Text Only | Print | Product List | Glossary Off
Versions: 1 2 3 4 5 6 7 8 9 10 11 12 13 14 15 16 17 18 19 20 21 22 23 24 25 26 27 28 29 30 31 32 33 34 35 36 37 38 39 40 41 42 43 44 45 46 47 48 49 50

000
ASUS43 KMPX 010001
RWRMN
WEATHER ROUNDUP FOR MINNESOTA
NATIONAL WEATHER SERVICE TWIN CITIES/CHANHASSEN MN
700 PM CDT SAT APR 30 2016


NOTE: "FAIR" INDICATES FEW OR NO CLOUDS BELOW 12,000 FEET WITH NO
SIGNIFICANT WEATHER AND/OR OBSTRUCTIONS TO VISIBILITY. N/A MEANS
CURRENT SKY AND/OR WEATHER CONDITIONS ARE NOT AVAILABLE.

MNZ060>063-068>070-010100-
   Twin Cities Metro

CITY           SKY/WX    TMP DP  RH WIND       PRES   REMARKS
TWIN CITIES    CLOUDY    55  35  47 NE14      30.04R
6HR MIN TEMP:  55; 6HR MAX TEMP:  58;

ST PAUL        CLOUDY    55  35  47 NE16G26   30.05R
CRYSTAL        CLOUDY    55  33  43 NE17G28   30.05R
BLAINE         CLOUDY    55  34  44 NE20      30.06R
EDEN PRAIRIE   CLOUDY    55  34  45 NE15G24   30.02S
6HR MIN TEMP:  55; 6HR MAX TEMP:  58;

SOUTH ST PAUL  CLOUDY    56  34  43 NE13G22   30.03S
LAKE ELMO      CLOUDY    54  36  50 NE15G24   30.06R
$$
MNZ001>005-007-008-013>017-022>024-027-028-010100-
   Northwest Minnesota

CITY           SKY/WX    TMP DP  RH WIND       PRES   REMARKS
BEMIDJI        SUNNY     56  29  36 NE12      30.17S
HALLOCK        SUNNY     63  19  19 E16       30.24R
ROSEAU         SUNNY     55  32  41 E16       30.25R
WARROAD        SUNNY     48  36  61 E8        30.26R
THIEF RVR FALL SUNNY     57  27  30 NE16G22   30.22S
CROOKSTON      SUNNY     59  28  31 NE15G21   30.21R
FOSSTON        CLOUDY    55  27  33 NE15G22   30.19S
DETROIT LAKES  CLOUDY    55  30  38 E13G18    30.15R
MOORHEAD       CLOUDY    61  28  29 NE14G21   30.14S
PARK RAPIDS    CLOUDY    57  26  30 NE14G24   30.14R
MAHNOMEN       FAIR      58  29  32 NE15      30.15R
$$
MNZ006-009>011-018-025>026-010100-
   North Central Minnesota

CITY           SKY/WX    TMP DP  RH WIND       PRES   REMARKS
BAUDETTE       SUNNY     56  25  30 NE13      30.23R
FLAG ISLAND    SUNNY     55  27  33 NE12      30.24F
INTL FALLS     SUNNY     55  25  31 NE10      30.23R
6HR MIN TEMP:  52; 6HR MAX TEMP:  57;

WASKISH        SUNNY     55  30  38 NE15G21   30.21S
BIG FORK       SUNNY     55  27  33 E9        30.20S
LONGVILLE      SUNNY     55  28  35 E9        30.15S
GRAND RAPIDS   CLOUDY    52  28  40 SE6       30.20R
CRANE LAKE     SUNNY     55  25  30 NE8       30.24R
ORR            SUNNY     55  19  24 NE3       30.19S
COOK           SUNNY     54  27  35 E8        30.21S
WALKER         FAIR      55  28  36 NE9G16    30.15S
$$
MNZ012-019>021-037-010100-
   Northeast Minnesota

CITY           SKY/WX    TMP DP  RH WIND       PRES   REMARKS
DULUTH         CLOUDY    45  27  49 E16       30.21S
6HR MIN TEMP:  45; 6HR MAX TEMP:  50;

ELY            MOSUNNY   50  27  40 E7        30.23R
HIBBING        SUNNY     48  28  46 SE14      30.21R
EVELETH        SUNNY     48  28  46 E6        30.23R
DULUTH HARBOR  CLOUDY    41  36  81 NE22      30.23S
TWO HARBORS    CLOUDY    46  32  57 E12G21    30.22F
SILVER BAY     CLOUDY    45  27  49 NE7       30.23F
GRAND MARAIS     N/A     44  30  57 NE8       30.26F
G MARAIS ARPRT SUNNY     43  25  49 E10       30.24F
$$
MNZ029>031-032-039>041-046>048-054>057-064-010100-
   West Central Minnesota

CITY           SKY/WX    TMP DP  RH WIND       PRES   REMARKS
FERGUS FALLS   CLOUDY    57  30  35 E13G18    30.09R
WHEATON        CLOUDY    59  34  38 NE16G25   30.11S
MORRIS         CLOUDY    55  34  44 E20G26    30.09R
ALEXANDRIA     CLOUDY    53  29  39 E16G28    30.12R
ELBOW LAKE     FAIR      56  32  40 NE13G21   30.11R
WADENA         MOSUNNY   54  30  40 E14       30.13R
GLENWOOD       CLOUDY    52  32  46 NE18G25   30.11R
APPLETON       CLOUDY    57  34  41 NE14      30.07R
BENSON         CLOUDY    55  30  38 E15G21    30.08R
ORTONVILLE     CLOUDY    55  36  47 NE9G17    30.08R
MADISON        CLOUDY    55  36  47 NE16      30.06S
WILLMAR        CLOUDY    55  37  50 E17G24    30.08R
$$
MNZ033>034-036-042>043-049>051-058-059-010100-
   Central Minnesota

CITY           SKY/WX    TMP DP  RH WIND       PRES   REMARKS
ST CLOUD       CLOUDY    54  30  40 NE13G29   30.09R
6HR MIN TEMP:  53; 6HR MAX TEMP:  58;

SAUK CENTRE    FAIR      51  32  47 NE14G24   30.11R
PAYNESVILLE    CLOUDY    54  32  43 NE17G23   30.09R
AITKIN         CLOUDY    52  25  35 E13G24    30.16R
PINE RIVER     CLOUDY    54  34  47 E12G18    30.17S
BRAINERD       MOSUNNY   51  28  41 NE14G22   30.15R
STAPLES        MOSUNNY   54  27  35 E9G17     30.13S
LONG PRAIRIE   FAIR      50  32  50 NE16      30.12R
LITTLE FALLS   CLOUDY    50  28  43 NE9G21    30.13S
LITCHFIELD     CLOUDY    55  36  47 NE14G20   30.07R
BUFFALO        CLOUDY    53  33  46 NE14      30.07R
MAPLE LAKE     CLOUDY    55  36  49 NE16G23   30.07R
HUTCHINSON     CLOUDY    55  38  54 NE15      30.06R
$$
MNZ037-044-045-052-053-010100-
   East Central Minnesota

CITY           SKY/WX    TMP DP  RH WIND       PRES   REMARKS
PRINCETON        N/A     55  30  38 NE15G23   30.10R
MORA           CLOUDY    50  30  46 NE12G22   30.14S
CAMBRIDGE      CLOUDY    55  36  47 NE13G21   30.08S
RUSH CITY      CLOUDY    51  30  44 NE13G22   30.11S
MOOSE LAKE     MOSUNNY   46  27  46 NE12G25   30.17R
HINCKLEY       FAIR      50  32  50 N16G23    30.14R
CLOQUET        CLOUDY    46  25  42 E16G25    30.20R
MCGREGOR       CLOUDY    48  30  49 E15       30.19R
$$
MNZ071>073-080-081-089-090-097-098-010100-
   Southwest Minnesota

CITY           SKY/WX    TMP DP  RH WIND       PRES   REMARKS
MONTEVIDEO     CLOUDY    55  36  47 E15G23    30.07S
GRANITE FALLS  CLOUDY    56  38  50 NE10      30.06R
CANBY          CLOUDY    55  40  56 NE9       30.06R
MARSHALL       CLOUDY    48  40  73 SE9       30.04R
REDWOOD FALLS  CLOUDY    54  35  48 E9        30.03R
OLIVIA         CLOUDY    54  34  47 E9        30.04S
WINDOM         LGT RAIN  45  41  87 E18G25    30.01R
WORTHINGTON    LGT RAIN  43  39  86 NE25G31   29.99R
JACKSON        LGT RAIN  43  41  93 NE23G31   29.99R
TRACY          LGT RAIN  46  42  86 E15G21    30.03S
SLAYTON        LGT RAIN  44  42  93 E18       30.01R
$$
MNZ065>067-074>077-082>085-091>093-010100-
   South Central Minnesota

CITY           SKY/WX    TMP DP  RH WIND       PRES   REMARKS
MANKATO        CLOUDY    46  39  76 E8        30.03S
NEW ULM        LGT RAIN  46  43  87 E7        30.03S
ST JAMES       LGT RAIN  39  37  93 NE13      30.03S
FAIRMONT       CLOUDY    45  34  65 NE17G23   29.99R
GLENCOE        CLOUDY    55  39  56 N3        30.03S
FARIBAULT      CLOUDY    48  39  71 NE9G17    30.03S
OWATONNA       LGT RAIN  46  39  76 E13       30.02S
WASECA         RAIN      45  39  81 NE12      30.03S
ALBERT LEA     CLOUDY    45  45 100 E15G22    29.99R
$$
MNZ078>079-086>088-094>096-010100-
   Southeast Minnesota

CITY           SKY/WX    TMP DP  RH WIND       PRES   REMARKS
ROCHESTER      LGT RAIN  43  40  89 E17G24    30.02R
6HR MIN TEMP:  43; 6HR MAX TEMP:  46; 6HR PCP:  0.51;

RED WING       CLOUDY    55  32  41 E7        30.02R
STANTON        CLOUDY    53  37  55 E5        30.02R
DODGE CENTER   LGT RAIN  43  41  93 E17G24    30.02S
WINONA         DRIZZLE   46  41  81 E10       30.05F
AUSTIN         DRIZZLE   43  39  87 E18G25    29.99S
PRESTON        LGT RAIN  41  38  88 NE14G23   29.99F
$$
ABBREVIATIONS USED IN REMARKS
   TC - TEMPERATURES IN CELSIUS
  WCI - WIND CHILL INDEX
   HX - HEAT INDEX
  VSB - VISIBILITY
$$



USA.gov is the U.S. government's official web portal to all federal, state and local government web resources and services.